Sponsored by H&N Chevrolet-Buick

Weather

Hourly Observations for January 14, 2020

Temp ( °F °C ) Dew Point ( °F °C ) Humidity (%) Winds ( mph kmh ) Pressure ( in mb ) Visibility ( mi km ) Precip ( " mm )
12:53 am 00:53 Cloudy 62 16.7 57 13.9 84 84 Calm 29.99 1016 10 16.0934 0 0
1:53 am 01:53 Cloudy 61 16.1 57 13.9 87 87 WNW 3 6 30.01 1016 10 16.0934 0 0
2:53 am 02:53 Cloudy 63 17.2 59 15 87 87 NW 3 6 29.98 1015 10 16.0934 0 0
3:53 am 03:53 Mostly Cloudy 62 16.7 58 14.4 86 86 Calm 29.97 1015 10 16.0934 0 0
4:53 am 04:53 Mostly Clear 61 16.1 57 13.9 87 87 SSE 7 11 29.95 1014 10 16.0934 0 0
5:53 am 05:53 Clear 60 15.6 56 13.3 86 86 Calm 29.94 1014 10 16.0934 0 0
6:53 am 06:53 Sunny 62 16.7 58 14.4 86 86 Calm 29.96 1014 10 16.0934 0 0
7:53 am 07:53 Mostly Cloudy 67 19.4 59 15 76 76 Calm 29.98 1015 10 16.0934 0 0
8:53 am 08:53 Mostly Sunny 70 21.1 59 15 68 68 WNW 3 6 29.97 1015 10 16.0934 0 0
9:53 am 09:53 Cloudy 73 22.8 62 16.7 69 69 VRB 5 7 29.97 1015 10 16.0934 0 0
10:53 am 10:53 Mostly Cloudy 76 24.4 64 17.8 67 67 N 9 15 29.97 1015 10 16.0934 0 0
11:53 am 11:53 Mostly Cloudy 76 24.4 64 17.8 67 67 NNW 9 15 29.97 1015 10 16.0934 0 0
12:53 pm 12:53 Cloudy 78 25.6 65 18.3 64 64 N 9 15 29.96 1015 10 16.0934 0 0
1:49 pm 13:49 Mostly Cloudy 77 25 64 18 65 65 NNW 9 15 29.92 1013 10 16.0934 0 0
1:53 pm 13:53 Cloudy 77 25 64 17.8 64 64 NNW 8 13 29.96 1015 10 16.0934 0 0
2:04 pm 14:04 Cloudy 78 25.6 64 17.8 62 62 NE 6 9 29.91 1013 10 16.0934 0 0
2:53 pm 14:53 Mostly Sunny 83 28.3 62 16.7 49 49 N 13 20 29.94 1014 10 16.0934 0 0
3:53 pm 15:53 Mostly Sunny 84 28.9 63 17.2 49 49 NNW 10 17 29.93 1014 10 16.0934 0 0
4:53 pm 16:53 Partly Cloudy 83 28.3 64 17.8 53 53 N 13 20 29.93 1013 10 16.0934 0 0
5:53 pm 17:53 Mostly Cloudy 78 25.6 65 18.3 64 64 N 17 28 29.94 1014 10 16.0934 0 0
6:53 pm 18:53 Partly Cloudy 77 25 65 18.3 66 66 NNE 14 22 29.95 1014 10 16.0934 0 0
7:53 pm 19:53 Sunny 76 24.4 64 17.8 67 67 N 10 17 29.95 1014 10 16.0934 0 0
8:53 pm 20:53 Cloudy with Light Rain 72 22.2 61 16.1 68 68 NNE 14 22 29.96 1014 10 16.0934 0.001 0.001
9:53 pm 21:53 Cloudy 71 21.7 63 17.2 76 76 NNW 8 13 29.97 1015 10 16.0934 0.001 0.001
10:53 pm 22:53 Cloudy 72 22.2 61 16.1 68 68 NNW 12 19 29.97 1015 10 16.0934 0 0
11:53 pm 23:53 Partly Cloudy 69 20.6 59 15 70 70 NNW 9 15 29.97 1015 10 16.0934 0 0

Powered by AerisWeather